Regional Weather Roundup
Issued by NWS

Home | Current Version | Previous Version | Text Only | Print | Product List | Glossary On
Versions: 1 2 3 4 5 6 7 8 9 10 11 12 13 14 15 16 17 18 19 20 21 22 23 24 25 26 27 28 29 30 31 32 33 34 35 36 37 38 39 40 41 42 43 44 45 46 47 48 49 50
000
ASUS44 KBMX 032110
RWRAL

ALABAMA REGIONAL WEATHER ROUNDUP
NATIONAL WEATHER SERVICE BIRMINGHAM AL
400 PM CDT FRI JUL 03 2015

NOTE: "FAIR" INDICATES FEW OR NO CLOUDS BELOW 12,000 FEET
WITH NO SIGNIFICANT WEATHER AND/OR OBSTRUCTIONS TO VISIBILITY.

THE REMARK "TC" DENOTES TEMPERATURE IN DEGREES CELSIUS.

ALZ001>011-014-016>018-020-032200-
NORTH ALABAMA

CITY           SKY/WX    TMP DP  RH WIND       PRES   REMARKS
MUSCLE SHOALS  CLOUDY    72  68  87 SW9       30.00F
HUNTSVILLE     LGT RAIN  73  69  87 W14       29.99F
DECATUR        LGT RAIN  71  68  90 W10       30.00F
HALEYVILLE     FAIR      72  70  93 CALM      30.05F
GADSDEN        CLOUDY    84  64  51 W7        30.01F
$$

ALZ012-013-022-023-030>036-040>044-032200-
WEST CENTRAL ALABAMA

CITY           SKY/WX    TMP DP  RH WIND       PRES   REMARKS
TUSCALOOSA     CLOUDY    84  69  60 N9        29.99S
$$

ALZ015-024>027-033>036-040>044-032200-
CENTRAL ALABAMA

CITY           SKY/WX    TMP DP  RH WIND       PRES   REMARKS
BIRMINGHAM     CLOUDY    80  68  66 NW6       30.04F
MONTGOMERY     CLOUDY    90  70  51 W10       30.01F HX  95
SHELBY CO ARPT LGT RAIN  80  73  79 N3        30.02F
MAXWELL AFB    NOT AVBL
GREENVILLE     FAIR      90  72  55 SW7       30.02  HX  97
$$

ALZ019-021-028-029-037-038-045>048-032200-
EAST CENTRAL ALABAMA

CITY           SKY/WX    TMP DP  RH WIND       PRES   REMARKS
ANNISTON       CLOUDY    78  70  76 SW6       30.02F
ALEXANDER CITY CLOUDY    81  68  64 W6        30.03F
AUBURN         PTSUNNY   86  70  58 SW8       30.04F HX  90
$$

ALZ051>064-032200-
SOUTHWEST ALABAMA

CITY           SKY/WX    TMP DP  RH WIND       PRES   REMARKS
MOBILE         MOSUNNY   88  77  69 S13       30.03F HX 100
BROOKLEY FIELD MOSUNNY   90  76  63 SW8       30.04S HX 101
EVERGREEN      PTSUNNY   91  71  51 SW7       30.02F HX  97
$$

ALZ049-050-065>069-032200-
SOUTHEAST ALABAMA

CITY           SKY/WX    TMP DP  RH WIND       PRES   REMARKS
DOTHAN         MOSUNNY   90  72  55 W5G16     30.06F HX  97
OZARK          MOSUNNY   92  73  53 W10       30.02F HX 100
TROY           PTSUNNY   91  74  57 S6        30.02F HX 100
EUFAULA        PTSUNNY   92  71  50 SW6       30.00F HX  98
$$


USA.gov is the U.S. government's official web portal to all federal, state and local government web resources and services.